This is the latest recevied weather packets stored in our database for station/object OE6PLD-13. If no packets are shown the sender has not sent any weather packets the latest 10 day(s).
| Time | Temp. | Humidity | Pressure | Rain* | Wind** | Luminosity | Snow |
|---|---|---|---|---|---|---|---|
| 1778075190 | 23.33° C | 48% | 1012.6 hPa | 0.76 mm | - | 414 W/m² | - |
| 1778075007 | 23.33° C | 48% | 1012.6 hPa | 0.76 mm | - | 422 W/m² | - |
| 1778074823 | 23.89° C | 49% | 1012.5 hPa | 0.76 mm | - | 434 W/m² | - |
| 1778074640 | 24.44° C | 47% | 1012.6 hPa | 0.76 mm | - | 406 W/m² | - |
| 1778074457 | 23.89° C | 49% | 1012.2 hPa | 0.76 mm | - | 439 W/m² | - |
| 1778074273 | 23.89° C | 49% | 1012.6 hPa | 0.76 mm | - | 400 W/m² | - |
| 1778074090 | 24.44° C | 49% | 1012.7 hPa | 0.76 mm | - | 457 W/m² | - |
| 1778073906 | 23.89° C | 49% | 1012.7 hPa | 0.76 mm | - | 460 W/m² | - |
| 1778073723 | 23.89° C | 49% | 1012.6 hPa | 0.76 mm | - | 440 W/m² | - |
| 1778073540 | 24.44° C | 48% | 1012.7 hPa | 0.76 mm | - | 296 W/m² | - |
| 1778073356 | 23.89° C | 49% | 1012.7 hPa | 0.76 mm | - | 428 W/m² | - |
| 1778073173 | 24.44° C | 48% | 1012.7 hPa | 0.76 mm | - | 286 W/m² | - |
| 1778072990 | 25° C | 48% | 1012.6 hPa | 0.76 mm | - | 536 W/m² | - |
| 1778072806 | 24.44° C | 50% | 1012.7 hPa | 0.76 mm | - | 531 W/m² | - |
| 1778072623 | 23.89° C | 50% | 1012.7 hPa | 0.76 mm | - | 452 W/m² | - |
| 1778072439 | 23.89° C | 49% | 1012.7 hPa | 0.76 mm | - | 531 W/m² | - |
| 1778072256 | 24.44° C | 48% | 1012.6 hPa | 0.76 mm | - | 566 W/m² | - |
| 1778072073 | 23.33° C | 50% | 1012.7 hPa | 0.76 mm | - | 635 W/m² | - |
| 1778071890 | 23.89° C | 51% | 1012.8 hPa | 0.76 mm | - | 203 W/m² | - |
| 1778071706 | 23.33° C | 51% | 1012.9 hPa | 0.76 mm | - | 363 W/m² | - |
| 1778071523 | 23.33° C | 50% | 1012.7 hPa | 0.76 mm | - | 193 W/m² | - |
| 1778071339 | 23.33° C | 49% | 1012.7 hPa | 0.76 mm | - | 622 W/m² | - |
| 1778071156 | 23.33° C | 48% | 1012.9 hPa | 0.76 mm | - | 183 W/m² | - |
| 1778070973 | 22.78° C | 49% | 1013 hPa | 0.76 mm | - | 646 W/m² | - |
| 1778070789 | 22.78° C | 49% | 1013 hPa | 0.76 mm | - | 625 W/m² | - |
* Rain latest hour (hover to see other rain measurements)
** Current wind speed in m/s (hover to see current wind gust speed)